1547766001.09,1974,0.0,0.0,-8.49,-11.89,-13.07,0,*6A
1547766002.32,1975,0.0,0.0,-8.49,-11.89,-12.97,0,*63
1547766003.52,1976,0.0,0.0,-8.49,-12.03,-13.07,0,*69
1547766004.72,1977,0.0,0.0,-8.49,-12.03,-13.07,0,*68
1547766005.92,1978,0.0,0.0,-8.49,-12.03,-12.97,0,*6F
1547766007.13,1979,0.0,0.0,-8.49,-12.03,-12.97,0,*6E
1547766008.35,1980,0.0,0.0,-8.49,-12.07,-13.07,0,*64
1547766009.61,1981,0.0,0.0,-8.47,-12.07,-12.93,0,*67
1547766010.84,1982,0.0,0.0,-8.49,-12.11,-12.93,0,*6D
1547766012.08,1983,0.0,0.0,-8.49,-12.07,-12.93,0,*6B
1547766013.34,1984,0.0,0.0,-8.49,-12.11,-12.79,0,*6F
1547766014.57,1985,0.0,0.0,-8.49,-12.11,-12.89,0,*61
1547766015.8,1986,0.0,0.0,-8.49,-12.25,-12.79,0,*6A
1547766017.04,1987,0.0,0.0,-8.51,-12.29,-12.93,0,*6A
1547766018.28,1988,0.0,0.0,-8.49,-12.21,-12.79,0,*60
1547766019.53,1989,0.0,0.0,-8.49,-12.35,-12.79,0,*64
1547766020.79,1990,0.0,0.0,-8.47,-12.39,-12.79,0,*6E
1547766022.05,1991,0.0,0.0,-8.49,-12.35,-12.79,0,*6D
1547766023.3,1992,0.0,0.0,-8.51,-12.39,-12.83,0,*6E
1547766024.53,1993,0.0,0.0,-8.55,-12.29,-12.83,0,*6A
1547766025.8,1994,0.0,0.0,-8.51,-12.25,-12.71,0,*68
1547766027.08,1995,0.0,0.0,-8.51,-12.15,-12.71,0,*6A
1547766028.37,1996,0.0,0.0,-8.51,-12.11,-12.71,0,*6D
1547766029.66,1997,0.0,0.0,-8.51,-12.07,-12.71,0,*6B
1547766030.94,1998,0.0,0.0,-8.51,-11.97,-12.57,0,*6A
1547766032.23,1999,0.0,0.0,-8.51,-11.93,-12.53,0,*6B
1547766033.48,2000,0.0,0.0,-8.51,-11.85,-12.43,0,*67
1547766034.74,2001,0.0,0.0,-8.51,-11.85,-12.29,0,*6A
1547766035.99,2002,0.0,0.0,-8.51,-11.73,-12.29,0,*60
1547766037.24,2003,0.0,0.0,-8.51,-11.73,-12.25,0,*6D
1547766038.52,2004,0.0,0.0,-8.51,-11.73,-12.15,0,*69
1547766039.77,2005,0.0,0.0,-8.55,-11.67,-12.11,0,*6D
1547766041.05,2006,0.0,0.0,-8.51,-11.67,-11.97,0,*67
1547766042.33,2007,0.0,0.0,-8.51,-11.59,-11.85,0,*68
1547766043.61,2008,0.0,0.0,-8.51,-11.59,-11.85,0,*67
1547766044.88,2009,0.0,0.0,-8.51,-11.45,-11.73,0,*62
1547766046.14,2010,0.0,0.0,-8.51,-11.45,-11.67,0,*6F
1547766047.4,2011,0.0,0.0,-8.51,-11.41,-11.59,0,*67
1547766048.66,2012,0.0,0.0,-8.51,-11.45,-11.59,0,*60
1547766049.89,2013,0.0,0.0,-8.51,-11.45,-11.45,0,*6C
1547766051.15,2014,0.0,0.0,-8.51,-11.33,-11.41,0,*6E
1547766052.41,2015,0.0,0.0,-8.51,-11.29,-11.19,0,*69
1547766053.63,2016,0.0,0.0,-8.51,-11.19,-11.19,0,*69
1547766054.86,2017,0.0,0.0,-8.51,-11.15,-11.11,0,*6C
1547766056.09,2018,0.0,0.0,-8.51,-11.15,-11.11,0,*63
1547766057.32,2019,0.0,0.0,-8.51,-11.11,-11.11,0,*66
1547766058.55,2020,0.0,0.0,-8.51,-11.11,-11.11,0,*6C
1547766059.77,2021,0.0,0.0,-8.51,-11.11,-11.01,0,*6C
1547766061.03,2022,0.0,0.0,-8.47,-11.11,-11.07,0,*6E
1547766062.24,2023,0.0,0.0,-8.49,-11.15,-10.97,0,*6D
1547766063.45,2024,0.0,0.0,-8.55,-11.23,-10.93,0,*66
1547766064.71,2025,0.0,0.0,-8.49,-11.07,-10.79,0,*68
1547766065.93,2026,0.0,0.0,-8.51,-11.11,-10.89,0,*6A
1547766067.16,2027,0.0,0.0,-8.51,-11.11,-10.85,0,*67
1547766068.42,2028,0.0,0.0,-8.51,-11.01,-10.75,0,*66
1547766069.68,2029,0.0,0.0,-8.51,-10.97,-10.71,0,*6D
1547766070.92,2030,0.0,0.0,-8.55,-11.01,-10.67,0,*68
1547766072.15,2031,0.0,0.0,-8.55,-10.89,-10.63,0,*6C
1547766073.38,2032,0.0,0.0,-8.55,-10.89,-10.63,0,*6F
1547766074.64,2033,0.0,0.0,-8.51,-10.71,-10.45,0,*69
1547766075.89,2034,0.0,0.0,-8.51,-10.71,-10.45,0,*6E
1547766077.15,2035,0.0,0.0,-8.51,-10.71,-10.45,0,*6F
1547766078.41,2036,0.0,0.0,-8.51,-10.71,-10.31,0,*6F
1547766079.65,2037,0.0,0.0,-8.51,-10.57,-10.27,0,*6D
1547766080.89,2038,0.0,0.0,-8.55,-10.67,-10.35,0,*66
1547766082.13,2039,0.0,0.0,-8.51,-10.57,-10.31,0,*64
1547766083.36,2040,0.0,0.0,-8.51,-10.57,-10.19,0,*60
1547766084.6,2041,0.0,0.0,-8.51,-10.45,-10.19,0,*62
1547766085.83,2042,0.0,0.0,-8.51,-10.31,-10.05,0,*6F
1547766087.06,2043,0.0,0.0,-8.51,-10.31,-10.05,0,*6E
1547766088.29,2044,0.0,0.0,-8.55,-10.41,-10.19,0,*67
1547766089.52,2045,0.0,0.0,-8.51,-10.31,-10.05,0,*68
1547766090.72,2046,0.0,0.0,-8.55,-10.31,-10.09,0,*63
1547766091.93,2047,0.0,0.0,-8.55,-10.35,-10.09,0,*66
1547766093.15,2048,0.0,0.0,-8.55,-10.41,-10.05,0,*66
1547766094.36,2049,0.0,0.0,-8.55,-10.31,-10.05,0,*60
1547766095.58,2050,0.0,0.0,-8.51,-10.27,-9.93,0,*5C
1547766096.82,2051,0.0,0.0,-8.51,-10.27,-10.01,0,*6E
1547766098.05,2052,0.0,0.0,-8.51,-10.27,-9.93,0,*5E
1547766099.24,2053,0.0,0.0,-8.55,-10.31,-9.97,0,*58
1547766100.47,2054,0.0,0.0,-8.51,-10.19,-9.93,0,*55
1547766101.7,2055,0.0,0.0,-8.51,-10.19,-9.93,0,*54
1547766102.93,2056,0.0,0.0,-8.51,-10.19,-9.93,0,*57
1547766104.13,2057,0.0,0.0,-8.55,-10.23,-9.97,0,*5F
1547766105.32,2058,0.0,0.0,-8.55,-10.23,-9.97,0,*50
1547766106.55,2059,0.0,0.0,-8.51,-10.19,-9.93,0,*58
1547766107.78,2060,0.0,0.0,-8.51,-10.15,-9.89,0,*55
1547766108.99,2061,0.0,0.0,-8.51,-10.05,-9.79,0,*5A
1547766110.19,2062,0.0,0.0,-8.55,-10.05,-9.71,0,*55
1547766111.4,2063,0.0,0.0,-8.55,-10.09,-9.83,0,*55
1547766112.62,2064,0.0,0.0,-8.51,-10.01,-9.75,0,*57
1547766113.83,2065,0.0,0.0,-8.55,-10.05,-9.83,0,*5F
1547766115.05,2066,0.0,0.0,-8.55,-10.05,-9.83,0,*5C
1547766116.26,2067,0.0,0.0,-8.55,-10.05,-9.83,0,*5D
1547766117.48,2068,0.0,0.0,-8.51,-10.01,-9.79,0,*57
1547766118.7,2069,0.0,0.0,-8.55,-10.05,-9.83,0,*53
1547766119.92,2070,0.0,0.0,-8.51,-10.01,-9.75,0,*52
1547766121.13,2071,0.0,0.0,-8.55,-9.97,-9.83,0,*69
1547766122.35,2072,0.0,0.0,-8.51,-9.93,-9.79,0,*6F
1547766123.56,2073,0.0,0.0,-8.51,-9.93,-9.75,0,*62
1547766124.77,2074,0.0,0.0,-8.55,-9.83,-9.71,0,*64
1547766125.99,2075,0.0,0.0,-8.51,-9.79,-9.75,0,*60
1547766127.2,2076,0.0,0.0,-8.51,-9.89,-9.79,0,*60
1547766128.42,2077,0.0,0.0,-8.55,-9.83,-9.71,0,*67
1547766129.6,2078,0.0,0.0,-8.55,-9.93,-9.71,0,*69
1547766130.79,2079,0.0,0.0,-8.55,-9.93,-9.71,0,*68
1547766132.0,2080,0.0,0.0,-8.55,-9.83,-9.71,0,*6F
1547766133.19,2081,0.0,0.0,-8.55,-9.93,-9.79,0,*67
1547766134.41,2082,0.0,0.0,-8.51,-9.79,-9.75,0,*68
1547766135.62,2083,0.0,0.0,-8.55,-9.83,-9.79,0,*64
1547766136.84,2084,0.0,0.0,-8.51,-9.75,-9.75,0,*62
1547766138.05,2085,0.0,0.0,-8.55,-9.83,-9.79,0,*62
1547766139.27,2086,0.0,0.0,-8.51,-9.75,-9.67,0,*63
1547766140.49,2087,0.0,0.0,-8.51,-9.79,-9.67,0,*6E
1547766141.69,2088,0.0,0.0,-8.55,-9.79,-9.71,0,*62
1547766142.88,2089,0.0,0.0,-8.55,-9.79,-9.71,0,*63
1547766144.1,2090,0.0,0.0,-8.51,-9.75,-9.67,0,*64
1547766145.3,2091,0.0,0.0,-8.55,-9.71,-9.71,0,*62
1547766146.5,2092,0.0,0.0,-8.55,-9.71,-9.67,0,*66
1547766147.71,2093,0.0,0.0,-8.51,-9.67,-9.75,0,*67
1547766148.93,2094,0.0,0.0,-8.51,-9.67,-9.67,0,*63
1547766150.12,2095,0.0,0.0,-8.55,-9.79,-9.71,0,*6E
1547766151.35,2096,0.0,0.0,-8.51,-9.75,-9.67,0,*62
1547766152.54,2097,0.0,0.0,-8.55,-9.79,-9.71,0,*6C
1547766153.76,2098,0.0,0.0,-8.51,-9.79,-9.75,0,*63
1547766154.98,2099,0.0,0.0,-8.51,-9.75,-9.75,0,*6E
1547766156.18,2100,0.0,0.0,-8.55,-9.71,-9.71,0,*6B
1547766157.39,2101,0.0,0.0,-8.55,-9.67,-9.57,0,*69
1547766158.6,2102,0.0,0.0,-8.55,-9.67,-9.57,0,*6A
1547766159.86,2103,0.0,0.0,-8.51,-9.61,-9.53,0,*6D
1547766161.06,2104,0.0,0.0,-8.55,-9.71,-9.67,0,*68
1547766162.28,2105,0.0,0.0,-8.51,-9.67,-9.75,0,*69
1547766163.47,2106,0.0,0.0,-8.55,-9.79,-9.71,0,*65
1547766164.67,2107,0.0,0.0,-8.55,-9.79,-9.79,0,*6C
1547766165.89,2108,0.0,0.0,-8.51,-9.75,-9.67,0,*64
1547766167.13,2109,0.0,0.0,-8.51,-9.61,-9.67,0,*60
1547766168.39,2110,0.0,0.0,-8.51,-9.61,-9.61,0,*6E
1547766169.63,2111,0.0,0.0,-8.51,-9.67,-9.61,0,*69
1547766170.83,2112,0.0,0.0,-8.55,-9.71,-9.67,0,*6F
1547766172.05,2113,0.0,0.0,-8.51,-9.67,-9.67,0,*6D
1547766173.27,2114,0.0,0.0,-8.51,-9.75,-9.75,0,*6A
1547766174.46,2115,0.0,0.0,-8.55,-9.71,-9.67,0,*68
1547766175.66,2116,0.0,0.0,-8.55,-9.71,-9.71,0,*6C
1547766176.91,2117,0.0,0.0,-8.51,-9.67,-9.53,0,*6E
1547766178.1,2118,0.0,0.0,-8.55,-9.71,-9.67,0,*65
1547766179.37,2119,0.0,0.0,-8.51,-9.53,-9.53,0,*67
1547766180.63,2120,0.0,0.0,-8.51,-9.61,-9.61,0,*6D
1547766181.9,2121,0.0,0.0,-8.51,-9.61,-9.53,0,*6D
1547766183.16,2122,0.0,0.0,-8.51,-9.61,-9.61,0,*6F
1547766184.43,2123,0.0,0.0,-8.51,-9.61,-9.53,0,*6F
1547766185.7,2124,0.0,0.0,-8.51,-9.61,-9.61,0,*69
1547766186.96,2125,0.0,0.0,-8.51,-9.61,-9.61,0,*68
1547766188.23,2126,0.0,0.0,-8.51,-9.61,-9.53,0,*6A
1547766189.44,2127,0.0,0.0,-8.55,-9.67,-9.53,0,*69
1547766190.71,2128,0.0,0.0,-8.51,-9.61,-9.61,0,*65
1547766191.95,2129,0.0,0.0,-8.51,-9.67,-9.53,0,*63
1547766193.17,2130,0.0,0.0,-8.51,-9.75,-9.79,0,*60
1547766194.37,2131,0.0,0.0,-8.55,-9.79,-9.71,0,*61
1547766195.59,2132,0.0,0.0,-8.51,-9.67,-9.67,0,*6E
1547766196.8,2133,0.0,0.0,-8.55,-9.71,-9.57,0,*6F
1547766198.07,2134,0.0,0.0,-8.51,-9.53,-9.61,0,*69
1547766199.33,2135,0.0,0.0,-8.51,-9.61,-9.61,0,*69
1547766200.52,2136,0.0,0.0,-8.55,-9.67,-9.67,0,*6E
1547766201.79,2137,0.0,0.0,-8.51,-9.53,-9.53,0,*6B
1547766203.03,2138,0.0,0.0,-8.55,-9.45,-9.57,0,*63
1547766204.29,2139,0.0,0.0,-8.51,-9.53,-9.41,0,*66
1547766205.51,2140,0.0,0.0,-8.55,-9.67,-9.53,0,*68
1547766206.78,2141,0.0,0.0,-8.51,-9.53,-9.53,0,*6A
1547766208.04,2142,0.0,0.0,-8.51,-9.53,-9.53,0,*69
1547766209.31,2143,0.0,0.0,-8.51,-9.53,-9.61,0,*69
1547766210.57,2144,0.0,0.0,-8.51,-9.53,-9.61,0,*6E
1547766211.84,2145,0.0,0.0,-8.51,-9.53,-9.53,0,*6E
1547766213.05,2146,0.0,0.0,-8.55,-9.67,-9.57,0,*6A
1547766214.32,2147,0.0,0.0,-8.51,-9.49,-9.49,0,*6C
1547766215.59,2148,0.0,0.0,-8.51,-9.49,-9.49,0,*63
1547766216.85,2149,0.0,0.0,-8.51,-9.49,-9.41,0,*6A
1547766218.12,2150,0.0,0.0,-8.51,-9.49,-9.49,0,*6A
1547766219.37,2151,0.0,0.0,-8.49,-9.37,-9.49,0,*6B
1547766220.6,2152,0.0,0.0,-8.49,-9.49,-9.57,0,*6E
1547766221.85,2153,0.0,0.0,-8.49,-9.49,-9.49,0,*60
1547766223.09,2154,0.0,0.0,-8.49,-9.49,-9.45,0,*6B
1547766224.33,2155,0.0,0.0,-8.49,-9.49,-9.37,0,*6F
1547766225.6,2156,0.0,0.0,-8.47,-9.49,-9.49,0,*6B
1547766226.84,2157,0.0,0.0,-8.49,-9.57,-9.49,0,*6B
1547766228.08,2158,0.0,0.0,-8.49,-9.49,-9.49,0,*6B
1547766229.32,2159,0.0,0.0,-8.49,-9.49,-9.49,0,*6A
1547766230.56,2160,0.0,0.0,-8.49,-9.45,-9.57,0,*63
1547766231.8,2161,0.0,0.0,-8.49,-9.49,-9.57,0,*6E
1547766233.03,2162,0.0,0.0,-8.49,-9.49,-9.57,0,*6D
1547766234.27,2163,0.0,0.0,-8.49,-9.61,-9.57,0,*66
1547766235.49,2164,0.0,0.0,-8.49,-9.71,-9.57,0,*60
1547766236.73,2165,0.0,0.0,-8.49,-9.49,-9.49,0,*65
1547766237.97,2166,0.0,0.0,-8.49,-9.49,-9.57,0,*69
1547766239.2,2167,0.0,0.0,-8.49,-9.57,-9.57,0,*67
1547766240.44,2168,0.0,0.0,-8.49,-9.49,-9.45,0,*64
1547766241.69,2169,0.0,0.0,-8.49,-9.45,-9.45,0,*69
1547766242.95,2170,0.0,0.0,-8.51,-9.49,-9.41,0,*60
1547766244.22,2171,0.0,0.0,-8.51,-9.49,-9.49,0,*69
1547766245.49,2172,0.0,0.0,-8.51,-9.49,-9.49,0,*6A
1547766246.73,2173,0.0,0.0,-8.49,-9.49,-9.49,0,*62
1547766247.99,2174,0.0,0.0,-8.51,-9.49,-9.49,0,*6C
1547766249.24,2175,0.0,0.0,-8.49,-9.45,-9.45,0,*64
1547766250.48,2176,0.0,0.0,-8.49,-9.49,-9.45,0,*6B
1547766251.73,2177,0.0,0.0,-8.49,-9.49,-9.37,0,*6F
1547766252.97,2178,0.0,0.0,-8.49,-9.45,-9.45,0,*69
1547766254.21,2179,0.0,0.0,-8.49,-9.57,-9.45,0,*6B
1547766255.45,2180,0.0,0.0,-8.49,-9.45,-9.45,0,*6E
1547766256.7,2181,0.0,0.0,-8.49,-9.45,-9.45,0,*6F
1547766257.94,2182,0.0,0.0,-8.49,-9.49,-9.49,0,*6C
1547766259.19,2183,0.0,0.0,-8.49,-9.37,-9.49,0,*64
1547766260.44,2184,0.0,0.0,-8.49,-9.37,-9.45,0,*6F
1547766261.68,2185,0.0,0.0,-8.49,-9.45,-9.49,0,*67
1547766262.93,2186,0.0,0.0,-8.49,-9.37,-9.37,0,*68
1547766264.17,2187,0.0,0.0,-8.49,-9.45,-9.45,0,*69
1547766265.42,2188,0.0,0.0,-8.49,-9.45,-9.49,0,*6A
1547766266.68,2189,0.0,0.0,-8.51,-9.49,-9.61,0,*64
1547766267.95,2190,0.0,0.0,-8.51,-9.53,-9.61,0,*67
1547766269.16,2191,0.0,0.0,-8.49,-9.57,-9.71,0,*6A
1547766270.39,2192,0.0,0.0,-8.49,-9.57,-9.61,0,*68
1547766271.61,2193,0.0,0.0,-8.49,-9.49,-9.75,0,*63
1547766272.85,2194,0.0,0.0,-8.49,-9.57,-9.83,0,*62
1547766274.04,2195,0.0,0.0,-8.49,-9.71,-9.89,0,*6D
1547766275.27,2196,0.0,0.0,-8.47,-9.71,-9.89,0,*60
1547766276.48,2197,0.0,0.0,-8.49,-9.61,-9.97,0,*61
1547766277.71,2198,0.0,0.0,-8.47,-9.71,-10.15,0,*53
1547766278.92,2199,0.0,0.0,-8.49,-9.75,-10.15,0,*58
1547766280.14,2200,0.0,0.0,-8.49,-9.83,-10.31,0,*54
1547766281.34,2201,0.0,0.0,-8.49,-9.97,-10.45,0,*53
1547766282.54,2202,0.0,0.0,-8.49,-10.01,-10.53,0,*60
1547766283.74,2203,0.0,0.0,-8.49,-10.09,-10.57,0,*6D
1547766284.93,2204,0.0,0.0,-8.49,-10.09,-10.57,0,*6A
1547766286.12,2205,0.0,0.0,-8.49,-10.09,-10.85,0,*64
1547766287.36,2206,0.0,0.0,-8.51,-10.19,-11.01,0,*62
1547766288.59,2207,0.0,0.0,-8.51,-10.19,-11.01,0,*63
1547766289.8,2208,0.0,0.0,-8.49,-10.31,-11.15,0,*6A
1547766291.02,2209,0.0,0.0,-8.49,-10.27,-11.37,0,*6C
1547766292.25,2210,0.0,0.0,-8.49,-10.45,-11.51,0,*60
1547766293.53,2211,0.0,0.0,-8.51,-10.71,-11.67,0,*6A
1547766294.78,2212,0.0,0.0,-8.51,-10.85,-11.81,0,*6A
1547766296.03,2213,0.0,0.0,-8.51,-10.97,-11.81,0,*68
1547766297.29,2214,0.0,0.0,-8.51,-10.97,-11.81,0,*6F
1547766298.52,2215,0.0,0.0,-8.55,-11.01,-11.73,0,*69
1547766299.77,2216,0.0,0.0,-8.55,-11.07,-11.77,0,*68
1547766301.01,2217,0.0,0.0,-8.51,-11.01,-11.45,0,*6A
1547766302.26,2218,0.0,0.0,-8.55,-11.07,-11.51,0,*62
1547766303.51,2219,0.0,0.0,-8.55,-11.07,-11.51,0,*63
1547766304.75,2220,0.0,0.0,-8.51,-11.01,-11.41,0,*6A
1547766305.98,2221,0.0,0.0,-8.55,-11.07,-11.23,0,*6D
1547766307.21,2222,0.0,0.0,-8.55,-11.07,-11.23,0,*6E
1547766308.41,2223,0.0,0.0,-8.55,-11.01,-11.23,0,*69
1547766309.61,2224,0.0,0.0,-8.55,-10.93,-11.23,0,*64
1547766310.81,2225,0.0,0.0,-8.55,-10.93,-11.23,0,*65
1547766312.02,2226,0.0,0.0,-8.55,-10.93,-11.23,0,*66
1547766313.21,2227,0.0,0.0,-8.59,-10.89,-11.19,0,*69
1547766314.44,2228,0.0,0.0,-8.59,-10.89,-11.07,0,*69
1547766315.66,2229,0.0,0.0,-8.59,-10.89,-11.07,0,*68
1547766316.91,2230,0.0,0.0,-8.59,-10.79,-11.07,0,*6F
1547766318.14,2231,0.0,0.0,-8.59,-10.79,-11.01,0,*68
1547766319.34,2232,0.0,0.0,-8.59,-10.89,-11.01,0,*64
1547766320.53,2233,0.0,0.0,-8.59,-10.89,-10.89,0,*64
1547766321.78,2234,0.0,0.0,-8.59,-10.79,-10.79,0,*63
1547766323.05,2235,0.0,0.0,-8.59,-10.67,-10.67,0,*62
1547766324.33,2236,0.0,0.0,-8.61,-10.71,-10.71,0,*6A
1547766325.56,2237,0.0,0.0,-8.59,-10.67,-10.53,0,*67
1547766326.78,2238,0.0,0.0,-8.59,-10.53,-10.41,0,*6C
1547766327.98,2239,0.0,0.0,-8.59,-10.53,-10.49,0,*65
1547766329.17,2240,0.0,0.0,-8.59,-10.53,-10.49,0,*6B
1547766330.44,2241,0.0,0.0,-8.59,-10.67,-10.67,0,*61
1547766331.69,2242,0.0,0.0,-8.59,-10.79,-10.79,0,*62
1547766332.88,2243,0.0,0.0,-8.59,-10.89,-10.93,0,*68
1547766334.15,2244,0.0,0.0,-8.61,-10.93,-11.07,0,*63
1547766335.37,2245,0.0,0.0,-8.59,-10.75,-10.89,0,*66
1547766336.6,2246,0.0,0.0,-8.61,-10.85,-10.97,0,*6E
1547766337.83,2247,0.0,0.0,-8.59,-10.79,-10.89,0,*68
1547766339.05,2248,0.0,0.0,-8.59,-10.75,-10.89,0,*6B
1547766340.29,2249,0.0,0.0,-8.61,-10.93,-10.97,0,*66
1547766341.49,2250,0.0,0.0,-8.59,-10.93,-10.93,0,*61
1547766342.73,2251,0.0,0.0,-8.61,-10.93,-10.97,0,*6F
1547766343.93,2252,0.0,0.0,-8.59,-10.93,-10.89,0,*68
1547766345.17,2253,0.0,0.0,-8.61,-10.97,-10.93,0,*6D
1547766346.43,2254,0.0,0.0,-8.61,-10.93,-10.79,0,*6A
1547766347.67,2255,0.0,0.0,-8.61,-10.45,-10.35,0,*68
1547766348.9,2256,0.0,0.0,-8.59,-10.67,-10.53,0,*60
1547766350.1,2257,0.0,0.0,-8.59,-10.97,-10.85,0,*65
1547766351.35,2258,0.0,0.0,-8.59,-10.79,-10.67,0,*66
1547766352.58,2259,0.0,0.0,-8.61,-10.85,-10.57,0,*6C
1547766353.84,2260,0.0,0.0,-8.59,-10.75,-10.41,0,*65
1547766355.13,2261,0.0,0.0,-8.61,-10.71,-10.41,0,*6B
1547766356.38,2262,0.0,0.0,-8.59,-10.75,-10.41,0,*67
1547766357.64,2263,0.0,0.0,-8.61,-10.79,-10.45,0,*65
1547766358.9,2264,0.0,0.0,-8.59,-10.63,-10.41,0,*66
1547766360.13,2265,0.0,0.0,-8.61,-10.85,-10.57,0,*63
1547766361.35,2266,0.0,0.0,-8.59,-10.75,-10.53,0,*60
1547766362.62,2267,0.0,0.0,-8.61,-10.67,-10.45,0,*6E
1547766363.91,2268,0.0,0.0,-8.61,-10.67,-10.41,0,*65
1547766365.15,2269,0.0,0.0,-8.61,-10.57,-10.35,0,*64
1547766366.35,2270,0.0,0.0,-8.59,-10.49,-10.23,0,*6F
1547766367.61,2271,0.0,0.0,-8.61,-10.41,-10.27,0,*69
1547766368.85,2272,0.0,0.0,-8.61,-10.27,-10.15,0,*6B
1547766370.09,2273,0.0,0.0,-8.61,-10.27,-10.15,0,*6A
1547766371.32,2274,0.0,0.0,-8.61,-10.27,-10.09,0,*60
1547766372.56,2275,0.0,0.0,-8.61,-10.27,-10.15,0,*6C
1547766373.8,2276,0.0,0.0,-8.61,-10.27,-10.15,0,*6F
1547766375.03,2277,0.0,0.0,-8.61,-10.27,-10.23,0,*6B
1547766376.24,2278,0.0,0.0,-8.63,-10.27,-10.15,0,*63
1547766377.45,2279,0.0,0.0,-8.63,-10.27,-10.15,0,*62
1547766378.66,2280,0.0,0.0,-8.63,-10.27,-10.15,0,*64
1547766379.87,2281,0.0,0.0,-8.63,-10.27,-10.15,0,*65
1547766381.1,2282,0.0,0.0,-8.61,-10.27,-10.23,0,*61
1547766382.34,2283,0.0,0.0,-8.61,-10.27,-10.15,0,*65
1547766383.57,2284,0.0,0.0,-8.65,-10.31,-10.15,0,*61
1547766384.81,2285,0.0,0.0,-8.61,-10.27,-10.23,0,*66
1547766386.01,2286,0.0,0.0,-8.63,-10.27,-10.23,0,*67
1547766387.21,2287,0.0,0.0,-8.63,-10.27,-10.23,0,*66
1547766388.42,2288,0.0,0.0,-8.63,-10.27,-10.19,0,*60
1547766389.63,2289,0.0,0.0,-8.63,-10.23,-10.27,0,*68
1547766390.84,2290,0.0,0.0,-8.63,-10.23,-10.19,0,*6D
1547766392.07,2291,0.0,0.0,-8.65,-10.15,-10.05,0,*62
1547766393.3,2292,0.0,0.0,-8.65,-10.05,-10.01,0,*64
1547766394.51,2293,0.0,0.0,-8.65,-9.93,-9.93,0,*61
1547766395.7,2294,0.0,0.0,-8.63,-10.09,-9.97,0,*5F
1547766396.89,2295,0.0,0.0,-8.63,-10.09,-10.05,0,*6D
1547766398.11,2296,0.0,0.0,-8.63,-10.19,-10.19,0,*62
1547766399.34,2297,0.0,0.0,-8.65,-10.27,-10.19,0,*68
1547766400.54,2298,0.0,0.0,-8.63,-10.09,-10.15,0,*61
1547766401.78,2299,0.0,0.0,-8.65,-10.27,-10.19,0,*66
1547766403.01,2300,0.0,0.0,-8.65,-10.27,-10.27,0,*6A
1547766404.25,2301,0.0,0.0,-8.65,-10.19,-10.19,0,*6B
1547766405.49,2302,0.0,0.0,-8.65,-10.27,-10.27,0,*68
1547766406.69,2303,0.0,0.0,-8.63,-10.23,-10.23,0,*6F
1547766407.95,2304,0.0,0.0,-8.65,-10.41,-10.27,0,*6E
1547766409.19,2305,0.0,0.0,-8.65,-10.31,-10.19,0,*65
1547766410.42,2306,0.0,0.0,-8.65,-10.27,-10.27,0,*6C
1547766411.63,2307,0.0,0.0,-8.63,-10.35,-10.23,0,*6C
1547766412.84,2308,0.0,0.0,-8.63,-10.35,-10.35,0,*64
1547766414.07,2309,0.0,0.0,-8.65,-10.49,-10.45,0,*6F
1547766415.28,2310,0.0,0.0,-8.63,-10.57,-10.45,0,*6E
1547766416.56,2311,0.0,0.0,-8.65,-10.71,-10.63,0,*69
1547766417.78,2312,0.0,0.0,-8.65,-10.85,-10.85,0,*69
1547766419.03,2313,0.0,0.0,-8.65,-11.11,-10.71,0,*6F
1547766420.26,2314,0.0,0.0,-8.63,-11.11,-10.71,0,*6E
1547766421.52,2315,0.0,0.0,-8.65,-11.15,-10.63,0,*6E
1547766422.75,2316,0.0,0.0,-8.65,-10.97,-10.49,0,*6E
1547766424.01,2317,0.0,0.0,-8.65,-10.85,-10.41,0,*64
1547766425.27,2318,0.0,0.0,-8.65,-10.85,-10.41,0,*6B
1547766426.53,2319,0.0,0.0,-8.65,-10.75,-10.31,0,*62
1547766427.79,2320,0.0,0.0,-8.65,-10.63,-10.31,0,*6F
1547766429.05,2321,0.0,0.0,-8.65,-10.63,-10.27,0,*69
1547766430.29,2322,0.0,0.0,-8.63,-10.67,-10.23,0,*6C
1547766431.53,2323,0.0,0.0,-8.63,-10.67,-10.27,0,*69
1547766432.79,2324,0.0,0.0,-8.65,-10.71,-10.31,0,*68
1547766434.05,2325,0.0,0.0,-8.65,-10.63,-10.31,0,*6A
1547766435.31,2326,0.0,0.0,-8.65,-10.85,-10.41,0,*66
1547766436.56,2327,0.0,0.0,-8.65,-10.75,-10.31,0,*6F
1547766437.8,2328,0.0,0.0,-8.63,-10.71,-10.27,0,*65
1547766439.06,2329,0.0,0.0,-8.65,-10.71,-10.27,0,*62
1547766440.3,2330,0.0,0.0,-8.65,-10.57,-10.19,0,*63
1547766441.56,2331,0.0,0.0,-8.65,-10.63,-10.27,0,*68
1547766442.8,2332,0.0,0.0,-8.65,-10.57,-10.27,0,*6C
1547766444.0,2333,0.0,0.0,-8.63,-10.53,-10.15,0,*6E
1547766445.23,2334,0.0,0.0,-8.65,-10.49,-10.27,0,*65
1547766446.44,2335,0.0,0.0,-8.63,-10.45,-10.15,0,*6F
1547766447.67,2336,0.0,0.0,-8.65,-10.49,-10.27,0,*67
1547766448.91,2337,0.0,0.0,-8.63,-10.41,-10.15,0,*69
1547766450.12,2338,0.0,0.0,-8.63,-10.35,-10.15,0,*65
1547766451.38,2339,0.0,0.0,-8.65,-10.41,-10.19,0,*6D
1547766452.59,2340,0.0,0.0,-8.63,-10.31,-10.15,0,*6E
1547766453.79,2341,0.0,0.0,-8.63,-10.31,-10.05,0,*6E
1547766455.03,2342,0.0,0.0,-8.65,-10.15,-10.01,0,*69
1547766456.22,2343,0.0,0.0,-8.63,-10.09,-9.97,0,*54
1547766457.41,2344,0.0,0.0,-8.63,-10.01,-9.97,0,*5B
1547766458.64,2345,0.0,0.0,-8.65,-10.19,-10.05,0,*66
1547766459.88,2346,0.0,0.0,-8.65,-10.15,-10.01,0,*6D
1547766461.11,2347,0.0,0.0,-8.65,-10.05,-10.01,0,*6D
1547766462.35,2348,0.0,0.0,-8.65,-10.15,-10.01,0,*63
1547766463.56,2349,0.0,0.0,-8.65,-10.05,-9.93,0,*50
1547766464.79,2350,0.0,0.0,-8.65,-10.05,-10.01,0,*6B
1547766466.02,2351,0.0,0.0,-8.65,-10.05,-10.01,0,*6A
1547766467.26,2352,0.0,0.0,-8.65,-10.15,-10.01,0,*68
1547766468.48,2353,0.0,0.0,-8.65,-10.05,-10.01,0,*68
1547766469.72,2354,0.0,0.0,-8.65,-10.15,-10.01,0,*6E
1547766470.96,2355,0.0,0.0,-8.65,-10.15,-10.01,0,*6F
1547766472.2,2356,0.0,0.0,-8.65,-10.15,-10.01,0,*6C
1547766473.42,2357,0.0,0.0,-8.65,-10.05,-10.01,0,*6C
1547766474.66,2358,0.0,0.0,-8.65,-10.15,-10.01,0,*62
1547766475.85,2359,0.0,0.0,-8.63,-10.09,-9.97,0,*5F
1547766477.05,2360,0.0,0.0,-8.63,-10.01,-10.01,0,*6A
1547766478.29,2361,0.0,0.0,-8.65,-10.15,-10.01,0,*68
1547766479.51,2362,0.0,0.0,-8.65,-10.05,-9.93,0,*59
1547766480.74,2363,0.0,0.0,-8.65,-10.05,-10.01,0,*6B
1547766481.95,2364,0.0,0.0,-8.65,-10.05,-9.89,0,*54
1547766483.17,2365,0.0,0.0,-8.65,-10.05,-9.93,0,*5E
1547766484.36,2366,0.0,0.0,-8.63,-10.01,-9.89,0,*54
1547766485.55,2367,0.0,0.0,-8.63,-9.97,-9.89,0,*62
1547766486.73,2368,0.0,0.0,-8.63,-9.97,-9.89,0,*6D
1547766487.95,2369,0.0,0.0,-8.63,-10.01,-9.83,0,*51
1547766489.17,2370,0.0,0.0,-8.65,-10.05,-9.93,0,*5A
1547766490.38,2371,0.0,0.0,-8.65,-10.05,-9.93,0,*5B
1547766491.61,2372,0.0,0.0,-8.65,-10.15,-9.93,0,*59
1547766492.85,2373,0.0,0.0,-8.65,-10.15,-10.01,0,*6B
1547766494.06,2374,0.0,0.0,-8.63,-10.15,-10.01,0,*6A
1547766495.29,2375,0.0,0.0,-8.65,-10.19,-9.97,0,*56
1547766496.52,2376,0.0,0.0,-8.65,-10.15,-9.93,0,*5D
1547766497.74,2377,0.0,0.0,-8.65,-10.15,-9.89,0,*57
1547766498.96,2378,0.0,0.0,-8.65,-10.01,-9.89,0,*5D
1547766500.18,2379,0.0,0.0,-8.63,-10.01,-9.83,0,*50
1547766501.39,2380,0.0,0.0,-8.65,-9.93,-9.89,0,*69
1547766502.58,2381,0.0,0.0,-8.63,-9.97,-9.97,0,*65
1547766503.78,2382,0.0,0.0,-8.63,-10.01,-10.01,0,*66
1547766504.98,2383,0.0,0.0,-8.63,-10.09,-10.01,0,*6F
1547766506.21,2384,0.0,0.0,-8.65,-10.05,-10.01,0,*62
1547766507.4,2385,0.0,0.0,-8.63,-9.97,-9.93,0,*65
1547766508.62,2386,0.0,0.0,-8.65,-10.01,-9.93,0,*57
1547766509.8,2387,0.0,0.0,-8.63,-9.97,-9.89,0,*6C
1547766511.03,2388,0.0,0.0,-8.65,-10.01,-9.93,0,*59
1547766512.21,2389,0.0,0.0,-8.63,-9.93,-9.93,0,*6D
1547766513.4,2390,0.0,0.0,-8.63,-9.97,-9.97,0,*65
1547766514.59,2391,0.0,0.0,-8.63,-9.97,-9.97,0,*64
1547766515.77,2392,0.0,0.0,-8.63,-9.97,-9.97,0,*67
1547766516.96,2393,0.0,0.0,-8.63,-9.89,-9.97,0,*69
1547766518.18,2394,0.0,0.0,-8.65,-9.93,-10.01,0,*54
1547766519.38,2395,0.0,0.0,-8.63,-9.97,-10.01,0,*57
1547766520.57,2396,0.0,0.0,-8.63,-9.97,-10.09,0,*5C
1547766521.77,2397,0.0,0.0,-8.63,-10.09,-10.01,0,*6A
1547766522.97,2398,0.0,0.0,-8.63,-10.09,-10.01,0,*65
1547766524.21,2399,0.0,0.0,-8.65,-10.15,-10.15,0,*6A
1547766525.41,2400,0.0,0.0,-8.63,-10.09,-10.01,0,*63
1547766526.62,2401,0.0,0.0,-8.63,-10.23,-10.15,0,*6F
1547766527.83,2402,0.0,0.0,-8.63,-10.27,-10.19,0,*64
1547766529.07,2403,0.0,0.0,-8.65,-10.19,-10.15,0,*62
1547766530.28,2404,0.0,0.0,-8.63,-10.23,-10.19,0,*66
1547766531.48,2405,0.0,0.0,-8.63,-10.15,-10.09,0,*63
1547766532.72,2406,0.0,0.0,-8.65,-10.19,-10.19,0,*6B
1547766533.96,2407,0.0,0.0,-8.61,-10.15,-10.15,0,*6E
1547766535.2,2408,0.0,0.0,-8.65,-10.19,-10.19,0,*65
1547766536.41,2409,0.0,0.0,-8.63,-10.23,-10.15,0,*67
1547766537.62,2410,0.0,0.0,-8.63,-10.23,-10.15,0,*6F
1547766538.83,2411,0.0,0.0,-8.63,-10.23,-10.15,0,*6E
1547766540.03,2412,0.0,0.0,-8.63,-10.23,-10.23,0,*68
1547766541.24,2413,0.0,0.0,-8.63,-10.35,-10.27,0,*6A
1547766542.45,2414,0.0,0.0,-8.63,-10.27,-10.27,0,*6E
1547766543.71,2415,0.0,0.0,-8.65,-10.31,-10.41,0,*6E
1547766544.97,2416,0.0,0.0,-8.65,-10.45,-10.41,0,*6E
1547766546.23,2417,0.0,0.0,-8.63,-10.41,-10.41,0,*6D
1547766547.43,2418,0.0,0.0,-8.63,-10.45,-10.53,0,*65
1547766548.66,2419,0.0,0.0,-8.63,-10.45,-10.67,0,*63
1547766549.89,2420,0.0,0.0,-8.63,-10.57,-10.79,0,*65
1547766551.12,2421,0.0,0.0,-8.63,-10.67,-10.85,0,*64
1547766552.35,2422,0.0,0.0,-8.63,-10.71,-10.93,0,*67
1547766553.61,2423,0.0,0.0,-8.63,-10.71,-11.07,0,*6A
1547766554.8,2424,0.0,0.0,-8.63,-10.85,-11.11,0,*61
1547766556.01,2425,0.0,0.0,-8.63,-10.97,-11.11,0,*63
1547766557.24,2426,0.0,0.0,-8.63,-10.93,-11.07,0,*63
1547766558.47,2427,0.0,0.0,-8.63,-11.07,-11.11,0,*69
1547766559.7,2428,0.0,0.0,-8.65,-11.15,-11.23,0,*62
1547766560.93,2429,0.0,0.0,-8.63,-11.07,-11.19,0,*6F
1547766562.19,2430,0.0,0.0,-8.63,-11.07,-11.07,0,*68
1547766563.39,2431,0.0,0.0,-8.63,-10.93,-10.93,0,*69
1547766564.59,2432,0.0,0.0,-8.63,-10.93,-10.85,0,*6D